SCP
0 0 0 0 0 0 0 0 0 0 0 0 0 0 0 0 0 0 0 0 0 0 0 0 0 0 0 0 0 0 0 0 0 0 0 0 0 0 0 0 0 0 0
0 0 0 0 0 0 0 0 0 0 0 0 0 0 0 0 0 0 0 0 0 0 0 0 0 0 0 0 0 0 0 0 0 0 0 0 0 0 0 0 0 0 0
0 0 0 0 0 0 0 0 0 0 0 0 0 0 0 0 0 0 0 0 0 0 0 0 0 0 0 0 0 0 0 0 0 0 0 0 0 0 0 0 0 0 0
0 0 0 0 0 0 0 0 0 0 0 0 0 0 0 0 0 0 0 0 0 0 0 0 0 0 0 0 0 0 0 0 0 0 0 0 0 0 0 0 0 0 0
0 0 0 0 0 0 0 0 0 0 0 0 0 0 0 0 0 0 0 0 0 0 0 0 0 0 0 0 0 0 0 0 0 0 0 0 0 0 0 0 0 0 0
0 0 0 0 0 0 0 0 0 0 0 0 0 0 0 0 0 0 0 0 0 0 0 0 0 0 0 0 0 0 0 0 0 0 0 0 0 0 0 0 0 0 0
0 0 0 0 0 0 0 0 0 0 0 0 0 0 0 0 0 0 0 0 0 0 0 0 0 0 0 0 0 0 0 0 0 0 0 0 0 0 0 0 0 0 0
0 0 0 0 0 0 0 0 0 0 0 0 0 0 0 0 0 0 0 0 0 0 0 0 0 0 0 0 0 0 0 0 0 0 0 0 0 0 0 0 0 0 0
0 0 0 1 0 0 0 0 0 0 0 0 0 0 0 0 0 0 0 0 0 0 0 0 0 0 0 0 0 0 0 0 0 0 0 0 0 0 0 0 0 0 0
0 0 1 1 1 1 0 0 0 0 0 0 0 0 0 0 0 0 0 0 0 0 0 0 0 0 0 0 0 0 0 0 0 0 0 0 0 0 0 0 0 0 0
0 0 1 1 1 1 0 0 0 0 0 0 0 0 0 0 0 0 0 0 0 0 0 0 0 0 0 0 0 0 0 0 0 0 0 1 1 1 1 1 1 1 1
0 0 1 1 1 1 1 0 0 0 0 0 0 0 0 0 0 0 0 0 0 0 0 0 0 0 0 0 0 0 0 0 1 1 1 1 1 1 1 1 1 1 1
0 0 1 1 1 1 1 1 0 0 0 0 0 0 0 0 0 0 0 0 0 0 0 0 0 0 0 0 0 1 1 1 1 1 1 1 1 1 1 1 1 1 1
0 0 1 1 1 1 1 1 1 1 0 0 0 0 0 0 0 0 0 0 0 0 0 0 0 0 0 0 0 1 1 1 1 1 1 1 1 1 1 1 1 1 1
0 0 1 1 1 1 1 1 1 1 1 1 0 0 0 1 1 0 0 0 0 0 0 0 0 0 0 0 0 0 1 1 1 1 1 1 1 1 1 1 1 1 1
0 0 1 1 1 1 1 1 1 1 1 1 1 1 1 1 1 1 1 1 1 1 1 0 0 0 0 0 0 0 0 1 1 1 1 1 1 1 1 0 0 0 1
1 1 1 1 1 1 1 1 1 1 1 1 1 1 1 1 1 1 1 1 1 1 1 1 1 1 0 0 0 0 0 1 1 1 1 1 1 1 1 1 0 0 0
1 1 1 1 1 1 1 1 1 1 1 1 1 1 1 1 1 1 1 1 1 1 1 1 1 1 1 0 0 0 0 1 1 1 1 1 1 1 1 1 1 1 1
1 1 1 1 1 1 1 1 1 1 1 1 1 1 1 1 1 1 1 1 1 1 1 1 1 1 1 0 0 0 0 1 1 1 1 1 1 1 0 1 1 1 1
1 1 1 1 1 1 1 1 1 1 1 1 1 1 1 1 1 1 1 1 1 1 1 1 1 1 1 0 0 0 1 1 1 1 1 0 0 0 0 0 0 1 1
1 1 1 1 1 1 1 1 1 1 1 1 1 1 1 1 1 1 1 1 1 1 1 1 1 1 1 1 0 0 0 1 1 1 0 0 0 0 0 0 0 0 0
1 1 1 1 1 1 1 1 1 1 1 1 1 1 1 1 1 1 1 1 1 1 1 1 1 1 1 1 0 0 0 0 1 0 0 0 0 0 0 0 0 0 0
1 1 1 1 1 1 1 1 1 1 1 1 1 1 1 0 0 0 0 0 0 0 0 0 0 1 1 1 0 0 0 0 0 0 0 0 0 0 0 0 0 0 0
1 1 1 1 1 1 1 1 1 1 1 1 1 1 1 0 0 0 0 0 0 0 0 0 0 1 1 1 0 0 0 0 0 0 0 0 0 0 0 0 0 0 0
1 1 1 1 1 1 1 1 1 1 1 1 1 1 1 1 1 1 0 0 0 0 0 0 0 0 0 0 0 0 0 0 0 0 0 0 0 0 0 0 0 0 0
1 1 1 1 1 1 1 1 1 1 1 1 1 1 1 1 1 1 0 0 0 0 0 0 0 0 0 0 0 0 0 0 0 0 0 0 0 0 0 0 0 0 0
Wind_Speed
7 7 7 6 7 6 6 6 5 5 4 3 3 3 3 2 2 2 2 1 1 1 2 1 2 2 1 1 1 2 2 2 2 3 3 3 3 2 2 3 3 3 4
8 7 8 7 7 7 7 6 5 5 5 3 2 1 1 1 1 1 1 1 1 1 2 2 2 2 2 2 1 2 2 2 1 3 3 2 2 2 2 2 2 3 3
9 9 8 8 8 8 7 6 6 6 5 4 3 3 3 2 2 1 1 1 1 1 1 1 2 2 2 1 1 2 2 2 2 2 3 3 2 2 2 2 2 2 3
9 9 9 9 9 9 8 7 7 6 6 5 4 4 2 2 1 1 1 1 1 1 1 2 1 2 1 1 2 1 2 3 3 1 2 3 3 4 3 2 2 2 3
9 9 10 10 9 9 9 8 8 7 7 6 5 5 3 2 1 1 1 1 1 1 1 1 1 2 1 1 2 2 3 3 4 3 2 2 3 5 5 4 3 3 2
9 9 9 9 9 9 9 8 8 7 7 7 5 5 4 3 2 2 1 2 2 1 1 1 1 2 1 2 3 3 4 3 4 4 4 3 3 3 4 5 5 4 3
9 10 11 11 10 10 9 8 8 8 7 7 6 5 5 4 4 3 2 2 1 1 1 1 1 1 1 2 3 3 4 4 4 5 4 4 4 4 4 5 5 5 4
8 9 11 11 11 10 10 9 8 8 7 7 6 5 5 4 3 3 3 2 2 0 1 1 2 2 3 3 3 4 4 3 4 5 5 5 4 4 4 4 5 6 5
7 9 10 10 10 10 10 9 9 7 6 6 6 5 5 4 3 3 4 3 2 2 2 2 3 3 4 4 4 3 4 4 5 5 5 5 4 4 4 4 4 5 6
6 8 9 10 9 9 9 8 8 7 6 6 6 5 5 5 4 4 3 2 2 2 3 3 4 4 4 4 5 5 4 5 5 4 5 5 5 4 4 4 4 4 5
5 6 7 8 9 9 9 8 8 7 7 6 5 5 5 4 5 4 3 3 3 3 4 4 4 5 5 4 5 6 5 5 5 5 5 5 5 5 5 4 4 5 5
5 6 7 7 7 7 7 8 7 7 7 6 5 5 4 5 5 4 3 3 4 4 4 4 5 5 5 5 6 6 6 6 6 6 6 6 5 5 6 5 5 5 5
4 5 6 6 6 6 6 6 7 7 6 6 6 5 5 5 4 4 4 4 4 4 5 5 5 6 5 6 6 6 6 6 6 6 6 6 6 6 5 6 6 5 5
4 4 5 5 5 5 5 5 5 5 5 5 6 5 5 5 5 4 4 4 4 5 5 5 5 6 6 6 6 6 7 7 7 6 7 7 7 7 7 6 6 6 6
3 4 4 4 5 5 5 5 4 4 4 5 5 5 5 5 5 4 4 4 4 5 4 5 5 5 6 5 5 6 7 7 7 7 7 7 6 6 6 6 5 6 6
2 3 3 4 4 4 4 4 4 4 4 5 5 5 5 5 5 5 5 5 5 5 4 5 5 6 5 1 3 7 7 7 8 8 8 7 7 7 8 8 8 8 8
2 1 2 3 3 3 3 4 4 3 4 4 4 4 4 5 5 5 4 5 5 5 5 6 6 6 4 2 4 6 8 8 7 7 7 7 5 6 7 7 9 10 10
1 1 1 1 2 2 3 3 3 3 3 3 3 3 4 4 4 4 4 4 5 5 5 6 6 6 4 3 5 6 8 8 7 7 7 7 6 5 6 7 7 8 8
1 1 1 1 2 1 2 3 3 3 2 2 2 2 3 4 4 4 4 4 5 5 5 5 6 6 4 3 4 6 7 6 7 7 6 7 7 3 4 7 8 8 7
1 1 1 2 2 2 1 2 2 2 2 2 2 2 2 3 4 4 5 4 5 5 6 5 5 6 6 4 5 6 6 6 6 5 6 4 5 2 4 7 8 8 7
2 1 1 1 2 2 1 2 1 1 1 1 2 2 3 4 4 4 4 4 5 5 6 6 6 6 6 4 5 6 6 6 6 5 5 3 2 2 5 8 8 7 7
1 1 1 2 2 2 1 1 1 0 1 1 1 2 3 4 3 3 4 4 5 6 6 6 6 5 5 4 4 6 8 8 7 6 5 2 1 4 6 6 5 5 7
1 1 2 2 2 2 1 1 0 1 1 1 2 2 3 3 3 4 4 5 5 5 5 5 5 5 3 2 3 6 7 8 7 5 4 3 4 5 6 6 6 6 6
1 1 1 1 1 1 0 0 0 1 2 2 2 3 3 3 3 4 4 4 4 4 5 5 5 5 4 3 2 3 4 5 6 5 3 5 6 6 5 5 5 5 5
2 2 1 1 1 0 1 1 1 2 2 3 3 4 4 3 3 4 4 5 4 3 5 6 6 6 5 3 3 5 4 4 4 5 5 5 4 4 4 4 4 4 4
2 2 2 1 1 1 1 1 2 2 3 4 4 4 4 3 4 4 4 3 5 4 5 7 8 6 4 4 4 5 5 5 5 6 6 5 5 4 4 4 4 4 4
Wind_Direction
163 164 165 162 155 153 154 157 159 154 166 168 173 162 162 167 155 141 127 155 180 175 230 242 181 230 208 219 236 256 240 254 278 271 265 244 229 235 239 244 259 246 243
169 171 172 170 166 162 162 161 165 163 173 161 173 174 171 175 136 117 131 200 190 225 218 231 236 211 211 208 234 249 281 276 265 288 286 267 218 211 235 247 245 264 258
179 177 179 179 175 171 172 169 170 168 174 171 179 176 179 193 171 167 166 182 198 227 278 235 249 236 244 188 234 250 268 289 280 286 300 301 326 318 218 243 258 269 278
186 181 180 180 182 176 172 172 172 172 171 181 190 196 195 193 164 201 143 167 171 205 222 236 228 247 259 225 249 219 258 267 276 245 255 293 318 297 295 239 230 242 255
189 185 184 179 180 177 174 172 171 173 175 184 191 207 211 206 204 201 156 215 181 201 216 216 214 226 251 260 276 264 261 267 279 286 275 267 252 256 278 292 294 272 259
185 185 182 176 179 178 178 174 170 175 179 187 196 208 214 219 233 231 217 217 193 185 146 200 212 228 256 244 248 253 247 268 286 286 282 276 277 281 278 281 282 286 282
179 181 181 178 180 180 179 176 173 177 182 188 196 201 209 212 218 238 221 240 229 185 135 218 224 241 241 255 261 252 271 265 267 268 277 280 282 285 285 285 291 294 283
177 178 178 178 179 178 179 178 177 180 184 189 194 202 210 219 212 215 253 240 252 244 149 215 227 235 244 253 250 256 255 255 260 266 276 277 276 277 275 280 290 288 281
172 173 173 174 175 175 177 178 177 179 184 190 192 198 209 223 228 222 229 234 233 230 216 233 234 236 240 248 253 256 262 261 260 260 253 262 270 266 271 269 271 281 291
165 168 170 172 174 175 172 176 176 176 182 190 202 195 203 211 218 228 229 243 251 260 254 249 244 240 241 242 251 254 252 257 258 264 274 273 269 270 265 264 264 268 277
161 161 164 169 174 174 174 178 181 183 186 194 199 206 206 205 210 215 221 227 239 244 240 241 247 247 246 247 251 260 259 257 259 262 259 263 276 276 272 264 263 262 267
152 155 161 164 171 177 182 183 188 191 191 190 195 205 211 217 216 208 218 231 237 244 247 251 252 252 252 254 255 259 262 259 261 263 265 266 262 261 270 271 265 265 266
148 151 157 164 172 176 182 190 194 197 196 189 196 201 209 215 223 219 221 232 240 249 256 254 257 259 261 261 260 260 262 262 263 264 264 265 265 263 265 267 269 268 263
161 161 162 168 172 173 178 186 192 196 194 194 201 202 212 217 223 226 227 234 243 248 254 257 261 263 264 265 266 264 264 263 264 265 266 265 262 263 264 261 262 268 272
158 166 172 174 174 175 179 183 190 190 191 198 208 214 219 221 227 230 235 239 245 250 253 258 262 263 260 265 276 271 262 263 265 265 265 263 269 282 277 279 275 270 267
155 175 179 180 180 182 186 186 191 193 194 203 210 216 226 227 230 233 235 239 245 254 258 257 258 258 262 335 283 275 270 265 265 266 266 261 245 243 242 258 269 271 267
137 157 185 191 188 189 186 188 187 188 194 205 214 218 229 233 237 241 239 243 247 251 253 256 256 254 251 232 252 262 269 263 264 266 267 266 259 250 254 239 237 245 249
105 118 135 159 165 170 171 179 173 182 193 208 226 231 237 238 238 241 244 248 250 253 254 257 260 261 251 212 241 262 261 266 266 264 263 266 269 267 276 273 262 256 245
76 77 79 84 88 111 145 163 173 176 186 212 236 243 239 240 241 243 248 253 257 258 258 259 260 263 259 227 233 253 263 259 265 266 263 263 264 278 291 274 268 266 261
97 72 78 102 106 98 132 165 171 175 195 231 249 252 253 255 255 257 260 261 261 265 268 266 263 265 267 231 221 241 264 265 266 259 257 252 263 266 269 269 269 267 271
103 98 103 107 97 108 130 155 153 170 230 240 244 243 248 250 250 259 263 264 262 266 269 270 264 260 261 230 211 229 265 275 272 269 265 257 163 245 260 269 270 274 283
126 130 122 102 99 118 143 149 123 8 309 273 255 250 253 261 256 258 263 266 267 261 259 261 264 260 252 245 216 218 245 280 275 272 273 278 179 252 259 259 265 269 270
166 156 140 133 132 141 168 177 17 328 298 278 275 271 263 258 262 257 257 261 261 267 270 271 272 273 268 234 201 213 237 254 267 280 317 310 250 247 243 240 244 247 251
204 203 187 168 142 118 130 203 305 289 282 285 286 279 268 264 265 267 264 269 273 279 283 280 281 281 274 269 254 242 240 238 247 263 250 231 238 249 268 249 237 248 261
224 220 215 216 226 258 271 282 290 280 284 286 286 283 278 280 276 271 284 279 292 305 287 289 284 284 281 292 309 275 262 263 264 263 254 250 244 248 255 260 258 258 253
232 228 226 229 227 239 263 286 283 279 279 276 278 283 287 296 287 282 276 249 253 239 240 255 275 285 288 292 268 266 272 271 260 254 254 257 257 256 259 262 259 256 260